Regional Weather Roundup
Issued by NWS Sterling, VA

Home | Current Version | Previous Version | Graphics & Text | Print | Product List | Glossary On
Versions: 1 2 3 4 5 6 7 8 9 10 11 12 13 14 15 16 17 18 19 20 21 22 23 24 25 26 27 28 29 30 31 32 33 34 35 36 37 38 39 40 41 42 43 44 45 46 47 48 49 50
000
ASUS41 KLWX 162010
RWRLWX

REGIONAL WEATHER ROUNDUP
NATIONAL WEATHER SERVICE BALTIMORE MD/WASHINGTON DC
400 PM EDT TUE SEP 16 2014

Note: "FAIR" indicates few or no clouds below 12,000 feet
with no significant weather and/or obstructions to visibility.
 TC=TEMPERATURE CELSIUS

 * =Non NWS site. Station does not report precipitation (e.g. rain,
    snow, etc.), thunder, or fog.

DCZ001-MDZ009-015-VAZ040>042-051-053>054-162100-
WASHINGTON METRO

CITY           SKY/WX    TMP DP  RH WIND       PRES   REMARKS
WASHINGTON NAT PTSUNNY   77  49  37 N15       30.00S
DULLES         MOSUNNY   74  50  42 NW12G20   30.00F
ANDREWS AFB    MOSUNNY   74  52  46 N13       29.99S
QUANTICO       MOSUNNY   78  52  40 NW13      30.00S
COLLEGE PARK*  MOSUNNY   77  50  38 NW6       29.99S
LEESBURG*      PTSUNNY   77  54  44 N12       30.01S
GAITHERSBURG*  CLOUDY    72  55  56 NW5       30.04S

$$

MDZ006>007-011-014-162100-
BALTIMORE METRO

CITY           SKY/WX    TMP DP  RH WIND       PRES   REMARKS
BWI AIRPORT    PTSUNNY   73  52  47 NW10G18   29.99S
MD SCIENCE CTR   N/A     74  51  44 MISG      29.99S
MARTIN STATE   PTSUNNY   73  55  53 NW6       30.00R
ANNAPOLIS      MOSUNNY   75  54  47 N6        29.98S
FORT MEADE*    MOSUNNY   72  54  53 W9        30.01S

$$

MDZ012-015-019>023-162100-
MARYLAND EASTERN SHORE

CITY           SKY/WX    TMP DP  RH WIND       PRES   REMARKS
OCEAN CITY     PTSUNNY   79  56  45 N10       29.96S
SALISBURY      MOSUNNY   78  56  46 NW8       29.97R
BAY BRIDGE AP*   N/A     72  52  49 N3        29.98S
CAMBRIDGE*     MOSUNNY   77  55  47 W6        29.97F
EASTON*        MOSUNNY   75  57  53 N7        30.01F

$$

MDZ017>025-162100-
SOUTHERN MARYLAND

CITY           SKY/WX    TMP DP  RH WIND       PRES   REMARKS
PATUXENT RIVER MOSUNNY   77  56  48 N13       29.97F
ST INIGOES     PTSUNNY   75  55  49 VRB6      29.97S
LEONARDTOWN*   MOSUNNY   73  54  49 NW6       30.00R

$$

MDZ003>005-162100-
NORTH CENTRAL MARYLAND

CITY           SKY/WX    TMP DP  RH WIND       PRES   REMARKS
FREDERICK*     PTSUNNY   77  52  41 NW7       30.03F
HAGERSTOWN APT PTSUNNY   73  49  42 NW12      30.02S
WESTMINSTER*   CLOUDY    70  50  49 NW7       30.02R

$$

MDZ501>502-162100-
WESTERN MARYLAND

CITY           SKY/WX    TMP DP  RH WIND       PRES   REMARKS
OAKLAND*       MOSUNNY   59  46  63 NW7       30.10F
CUMBERLAND*    MOSUNNY   77  45  31 N10G16    30.07F

$$

VAZ025>031-162100-
SHENANDOAH VALLEY

CITY           SKY/WX    TMP DP  RH WIND       PRES   REMARKS
WINCHESTER*    MOSUNNY   75  46  35 W12       30.01F
STAUNTON*      PTSUNNY   74  53  48 N6        30.04S

$$

WVZ021-048>050-054>055-162100-
EASTERN WEST VIRGINIA PANHANDLE

CITY           SKY/WX    TMP DP  RH WIND       PRES   REMARKS
MARTINSBURG    MOSUNNY   74  47  38 N14G21    30.02S
PETERSBURG*    CLOUDY    70  46  42 CALM      30.05S

$$

VAZ036>039-050-162100-
CENTRAL FOOTHILLS

CITY           SKY/WX    TMP DP  RH WIND       PRES   REMARKS
CHARLOTTESVILL MOSUNNY   78  56  46 N9        29.99F
ORANGE*        CLOUDY    73  54  49 N6        30.01S

$$

VAZ055>057-162100-
NORTH AND CENTRAL PIEDMONT

CITY           SKY/WX    TMP DP  RH WIND       PRES   REMARKS
FREDERICKSBRG* SUNNY     77  55  46 N6        29.98S
STAFFORD*      SUNNY     75  54  48 N10G17    30.03S

$$

NCZ024-NYZ072-PAZ021-071-VAZ022-071-162100-
OTHER REGIONAL OBSERVATIONS

CITY           SKY/WX    TMP DP  RH WIND       PRES   REMARKS
NEW YORK CITY  CLOUDY    68  54  60 CALM      29.99S
PHILADELPHIA   PTSUNNY   74  54  49 N14       29.97F
PITTSBURGH     PTSUNNY   64  49  57 VRB5      30.08F
ROANOKE        MOSUNNY   76  59  55 W8        30.03F
RICHMOND       PTSUNNY   81  58  45 CALM      29.96S
RALEIGH        PTSUNNY   82  62  50 NE7       29.98F

$$

ANZ530>537-162100-
MARINE OBSERVATIONS

STATION/POSITION TIME  TEMP    WIND        PRES
                       AIR SEA DIR/SP/G
                 (UTC) (F)     (DEG/KT/KT) (MB)
THOMAS PT LIGHT  2000   73 75  350/ 11/ 12 1016.0F
BALT KEY BRIDGE  2000   74     300/ 10/ 13 1015.1S
COVE POINT       2000   72     360/ 10/ 13 1015.1R
LEWISETTA        2000   75 75  350/  8/ 11 1014.7S
SOLOMONS ISLAND  2000      76                N/A
PINEY POINT      2000          340/ 12/ 14   N/A

$$



USA.gov is the U.S. government's official web portal to all federal, state and local government web resources and services.